Location: La Tranch�e
(47.2106°N, 0.1890°E)
Time: 23:12:36
(UTC+00:00)

Daily predictions for brighter satellites

Satellite Brightness Start Highest point End
(mag) Time Altitude Azimuth Time Altitude Azimuth Time Altitude Azimuth
Meteor PRIRODA 3.6 16:42:24 10° SSE 16:45:59 64° ENE 16:49:35 10° N
ERBS 4.0 16:43:58 10° WNW 16:46:29 20° NNW 16:49:00 10° NNE
SL-16 R/B 3.7 16:43:15 10° N 16:46:40 16° NE 16:50:03 10° ENE
NOAA 12 4.1 16:41:33 10° SSE 16:46:49 67° ENE 16:52:07 10° N
CORIOLIS 4.5 16:45:18 10° SE 16:50:24 45° ENE 16:55:33 10° N
Cosmos 2082 Rocket 3.1 16:46:29 10° SSE 16:51:19 29° ESE 16:56:08 10° NE
Meteor 1-25 Rocket 4.2 16:49:48 10° N 16:55:21 64° ENE 17:00:55 10° SSE
Cosmos 468 Rocket 4.0 16:51:20 10° SSW 16:56:27 74° ESE 17:01:41 10° NNE
Cosmos 1500 Rocket 3.5 16:52:15 10° N 16:56:43 79° E 17:01:06 10° SSE
USA 306 3.9 16:56:11 10° WNW 17:00:02 32° N 17:03:34 12° ENE
Cosmos 1464 Rocket 4.5 16:54:42 10° SSW 17:01:02 69° W 17:07:26 10° N
Cosmos 1898 Rocket 3.5 16:56:44 10° NNW 17:02:02 88° ENE 17:07:14 10° SSE
Cosmos 2278 4.2 16:57:13 10° NNW 17:02:31 37° NE 17:07:45 10° ESE
Cosmos 1818 4.4 16:58:22 10° NNW 17:03:10 30° NE 17:07:57 10° E
CZ-4B DEB 4.4 16:57:58 10° SE 17:03:16 50° ENE 17:08:32 10° N
Cosmos 1602 3.8 17:00:00 10° N 17:03:48 54° ENE 17:07:35 10° SSE
Sich 1 3.3 16:59:48 10° N 17:03:55 43° ENE 17:08:02 10° SSE
Cosmos 2221 3.4 16:59:48 10° SSW 17:03:59 51° WNW 17:08:12 10° N
Cosmos 1939 Rocket 2.9 17:00:47 10° SSE 17:04:50 65° ENE 17:08:54 10° N
Nadezhda 4 Rocket 4.3 16:59:29 10° NNW 17:05:49 76° W 17:12:08 10° S
ARGOS 4.1 17:02:29 10° ESE 17:06:50 25° ENE 17:11:11 10° N
Cosmos 1805 Rocket 3.5 17:04:19 10° N 17:08:38 62° ENE 17:12:56 10° SSE
Cosmos 1833 Rocket 2.7 17:05:19 10° SSW 17:10:56 84° ESE 17:16:36 10° NNE
COSMOS 2406 3.2 17:09:09 10° SSW 17:14:52 71° ESE 17:20:35 10° NNE
NOSS 2-2 (C) 4.3 17:10:53 10° NW 17:15:57 71° NE 17:23:05 10° SE
deb Chang Zheng 4 4.4 17:14:23 10° ESE 17:18:03 28° ENE 17:21:43 10° N
USA 307 3.9 17:15:27 10° WNW 17:19:19 32° N 17:21:59 17° ENE
CZ-2C R/B 3.7 17:16:35 10° S 17:21:22 54° W 17:26:03 10° NNW
USA 267 3.3 17:16:34 12° NE 17:22:40 89° SE 17:29:13 10° SW
Cosmos 1782 2.8 17:18:53 10° S 17:22:48 58° E 17:26:43 10° NNE
Cosmos 1092 Rocket 4.0 17:16:30 10° N 17:22:54 88° E 17:29:14 10° S
Cosmos 1428 Rocket 4.4 17:17:28 10° N 17:23:38 79° E 17:29:48 10° SSE
CZ-2C R/B 3.3 17:22:22 10° NNE 17:26:59 31° E 17:31:33 10° SSE
Cosmos 1763 Rocket 4.0 17:22:56 10° SW 17:27:55 59° WNW 17:33:01 10° NNE
Cosmos 1500 3.0 17:24:47 10° N 17:28:32 68° E 17:32:14 10° SSE
CZ-2D R/B 3.3 17:25:33 10° SSE 17:29:17 56° ENE 17:33:03 10° N
CZ-4C R/B 3.0 17:23:00 10° NW 17:30:02 66° NE 17:38:21 10° SE
H-2A R/B 2.0 17:27:30 10° SSE 17:32:34 60° ENE 17:37:30 10° N
CZ-4B R/B 3.3 17:28:52 10° SE 17:34:03 48° ENE 17:39:09 10° N
Cosmos 841 Rocket 3.4 17:30:08 10° SSW 17:35:16 75° ESE 17:40:21 10° NNE
PAYLOAD B 4.2 17:30:16 10° SSE 17:35:50 71° ENE 17:41:26 10° N
ATLAS CENTAUR R/B 4.0 17:35:02 10° NW 17:36:29 11° NNW 17:37:59 10° N
Cosmos 1937 Rocket 4.1 17:35:04 10° NNW 17:40:20 62° WSW 17:45:33 10° S
USA 308 3.8 17:38:07 10° WNW 17:42:01 34° N 17:43:39 25° NE
SMAP 3.7 17:37:35 10° S 17:42:10 59° W 17:46:47 10° NNW
Lacrosse 5 rocket 1.7 17:39:38 10° NW 17:43:22 41° NNE 17:44:49 29° ENE
COSMO-SKYMED 1 3.0 17:41:39 19° NE 17:44:21 39° E 17:48:26 10° SSE
Cosmos 2142 Rocket 4.5 17:38:31 10° S 17:44:34 62° E 17:50:43 10° NNE
Cosmos 1125 Rocket 4.2 17:40:15 10° N 17:44:56 32° ENE 17:47:31 21° ESE
Cosmos 921 Rocket 4.0 17:42:04 10° SSE 17:45:22 25° E 17:45:22 25° E
COSMOS 2455 2.8 17:41:32 10° SSW 17:47:34 87° ESE 17:52:29 16° NE
Cosmos 372 Rocket 4.1 17:43:01 10° NNW 17:48:17 81° WSW 17:53:31 10° SSE
Cosmos 2279 Rocket 3.9 17:43:51 10° S 17:49:59 65° E 17:56:07 10° NNE
ATLAS 2AS CENTAUR R/B 4.3 17:44:31 10° NW 17:50:13 22° N 17:54:01 15° NE
Cosmos 1633 Rocket 3.0 17:46:41 10° N 17:51:03 62° ENE 17:55:23 10° SSE
ISS -3.3 17:47:46 10° WNW 17:51:08 61° SSW 17:53:03 23° SE
Cosmos 2360 Rocket 3.5 17:48:04 10° N 17:52:12 21° NE 17:52:12 21° NE
Cosmos 44 Rocket 3.4 17:48:32 10° NNW 17:53:22 52° NE 17:56:04 24° ESE
Cosmos 2266 Rocket 4.3 17:47:42 10° N 17:53:45 43° ENE 17:59:49 10° SE
YAOGAN 1 4.2 17:56:49 18° NNE 17:56:49 18° NNE 17:58:21 10° N
USA 234 3.5 17:50:10 10° SE 17:56:41 71° SW 18:03:14 10° NW
SL-24 R/B - RUBIN 2 4.2 17:52:35 10° NW 17:57:01 57° WSW 18:01:15 10° SSE
Meteor 1-11 Rocket 4.2 17:52:17 10° N 17:57:30 37° ENE 18:02:46 10° SE
Cosmos 1666 2.4 17:54:04 10° N 17:57:48 82° ENE 18:01:31 10° S
Cosmos 1151 Rocket 2.9 17:56:32 10° S 18:00:52 81° E 18:04:41 13° NNE
PSLV R/B 4.5 17:57:50 10° S 18:01:25 52° W 18:05:06 10° NNW
CZ-4 R/B 4.3 18:02:52 10° SSE 18:06:57 66° ENE 18:11:04 10° N
USA 305 3.5 18:04:12 10° NW 18:08:13 39° NNE 18:08:40 38° NNE
Cosmos 1634 Rocket 4.5 18:02:09 10° SSW 18:08:25 63° WNW 18:14:43 10° N
SKYMED 3 4.4 18:06:03 25° NNE 18:08:34 71° ESE 18:12:53 10° S
Cosmos 1900 4.3 18:05:41 10° SSW 18:10:27 60° ESE 18:11:48 43° ENE
Okean O Rocket 1.5 18:08:21 10° SSE 18:12:48 81° ENE 18:17:17 10° NNW
Cosmos 2322 Rocket 2.6 18:08:01 10° NNW 18:13:21 39° NE 18:13:54 38° ENE
Feng Yun 1-1 Rocket 4.4 18:08:18 10° SE 18:14:04 58° ENE 18:19:49 10° N
Meteor 2-15 4.4 18:08:41 10° S 18:14:41 62° E 18:20:41 10° NNE
Landsat 5 3.3 18:16:56 59° E 18:16:57 59° ESE 18:20:52 10° S
Cosmos 1666 Rocket 4.2 18:13:25 10° NNW 18:17:47 58° W 18:22:06 10° S
Cosmos 1980 Rocket 3.1 18:13:11 10° NW 18:18:37 49° WSW 18:23:59 10° S
Cosmos 1812 3.5 18:17:23 10° SSW 18:21:07 50° WNW 18:23:53 17° N
Cosmos 1470 Rocket 3.4 18:16:42 10° N 18:21:10 76° E 18:25:39 10° SSE
Cosmos 1328 Rocket 3.5 18:17:08 10° S 18:21:35 87° W 18:24:02 26° N
SJ-11-01 4.3 18:17:58 10° SSE 18:22:43 81° WSW 18:27:30 10° NNW
SL-16 R/B 2.1 18:26:15 10° NNW 18:31:55 66° ENE 18:33:21 49° ESE
SKYMED 2 3.8 18:30:16 28° N 18:32:30 67° WNW 18:36:48 10° SSW
Cosmos 1570 Rocket 4.2 18:27:29 10° SSW 18:32:42 69° WNW 18:35:28 28° N
Cosmos 1814 Rocket 4.5 18:29:22 10° SW 18:34:31 58° WNW 18:37:30 24° N
Meteor 2-8 Rocket 4.5 18:28:57 10° SSW 18:35:07 80° W 18:41:19 10° N
Cosmos 2082 Rocket 3.0 18:29:38 10° SW 18:35:08 50° WNW 18:38:46 21° N
Cosmos 2298 Rocket 3.9 18:30:01 10° NNW 18:35:23 87° ENE 18:38:49 23° SSE
Cosmos 1655 Rocket 3.9 18:28:56 10° N 18:35:24 86° E 18:41:46 10° S
ATLAS CENTAUR R/B 3.1 18:29:36 10° WSW 18:36:48 40° NW 18:37:45 36° N
USA 306 3.8 18:36:24 10° NW 18:39:34 40° NNW 18:39:34 40° NNW
CZ-2C R/B 3.8 18:40:49 10° SSW 18:42:01 12° S 18:42:01 12° S
Cosmos 2333 Rocket 3.9 18:40:23 10° N 18:42:44 20° N 18:42:44 20° N
ARGOS 3.8 18:41:28 10° S 18:46:46 55° W 18:52:05 10° NNW
Cosmos 1818 3.9 18:41:44 10° NW 18:47:10 66° WSW 18:49:42 31° SSE
NOAA 15 4.5 18:44:28 10° SSE 18:49:46 89° WSW 18:55:05 10° NNW
GEOS 3 Rocket 3.5 18:54:52 78° N 18:54:52 78° N 18:59:51 10° NW
USA 307 4.4 18:55:36 10° NW 18:58:01 31° NW 18:58:01 31° NW
Meteor 1-27 Rocket 4.0 18:57:33 10° S 19:01:42 53° S 19:01:42 53° S
USA 267 3.9 19:03:55 40° NNE 19:05:22 46° NNW 19:11:31 10° W
Cosmos 2219 Rocket 4.2 19:00:51 10° N 19:02:19 16° N 19:02:19 16° N
CZ-2C R/B 3.8 19:03:18 14° N 19:07:21 38° WNW 19:12:05 10° SW
CZ-4C R/B 4.2 19:11:47 10° NW 19:18:35 39° WSW 19:26:15 10° S
Lacrosse 5 rocket 3.6 19:18:42 10° WNW 19:20:27 23° WNW 19:20:27 23° WNW
Cosmos 2360 Rocket 3.7 19:31:21 10° NNW 19:33:59 29° NNW 19:33:59 29° NNW
ATLAS 2AS CENTAUR R/B 4.2 19:37:06 10° NW 19:41:27 27° N 19:41:27 27° N
Cosmos 2322 Rocket 3.7 19:52:08 10° NW 19:55:46 32° WNW 19:55:46 32° WNW
SL-16 R/B 4.3 20:11:18 10° NW 20:15:18 21° W 20:15:18 21° W
